STARLINK-1613 (46165 NORAD) Tracking and Keplerian Element Data

This shows tracking and keplerian element data for the satellite.

Feedback or suggestion? Click here.




ElementValue
Catalog46165
NameSTARLINK-1613
Epoch Orbit2364
Epoch Day20.90520021
Epoch Year2021
RAAN88.3362
Inclination53.0596
Eccentricity0.0001424
Argument of Perigee68.7345
Mean Anonmoly291.3796
Mean Motion15.06386797
Decay Rate5.6E-06
L11 46165U 20057BA 21020.90520021 .00000560 00000-0 56504-4 0 9995
L22 46165 53.0596 88.3362 0001424 68.7345 291.3796 15.06386797 23640

Live tracking and technical data element details for STARLINK-1613 (NORAD 46165). STARLINK-1613 can be tracked NOW for your location showing map with azimuth and elevation plus other details from your city location.

Track the satellite on the map from your city or location and see movement details for azimuth, elevation, latitude, longitude, range, height, and movement on the map or in text.







IsCatalogInMostPopularTable: catalog: 46165, numindb: 38
Update: records affected: 1



GetName: 46165 STARLINK-1613

Hit Count: updated at: Fri, 22 Jan 2021 16:24:11 GMT